CW8504 Weather Reports


time (UTC)temp
F
wind
direction
speed
knots
gust
knots
rain 1hr
in
rain 24hr
in
rain mn
in
humidity
%
barometer
mb
20260904161904 60 34 0.0 1.7 0.00 0.00 0.00 35 1016.8
20260904161404 59 36 0.0 0.0 0.00 0.00 0.00 36 1016.8
20260904160904 58 36 0.0 0.0 0.00 0.00 0.00 38 1016.8
20260904160404 57 39 0.0 0.0 0.00 0.00 0.00 40 1016.9
20260904155904 56 39 0.0 0.0 0.00 0.00 0.00 42 1016.9
20260904154904 54 39 0.0 0.0 0.00 0.00 0.00 46 1017.0
20260904154404 53 39 0.0 0.0 0.00 0.00 0.00 48 1017.1
20260904153904 52 39 0.0 0.0 0.00 0.00 0.00 50 1017.1
20260904153404 51 39 0.0 0.0 0.00 0.00 0.00 54 1017.1
20260904152904 49 39 0.0 0.0 0.00 0.00 0.00 57 1017.2
20260904152404 48 39 0.0 0.0 0.00 0.00 0.00 60 1017.2
20260904150904 45 39 0.0 0.0 0.00 0.00 0.00 67 1017.3
20260904150404 44 39 0.0 0.0 0.00 0.00 0.00 68 1017.4
20260904145904 43 39 0.9 2.6 0.00 0.00 0.00 69 1017.5
20260904145404 42 39 0.0 0.0 0.00 0.00 0.00 70 1017.5
20260904144903 41 39 0.0 0.0 0.00 0.00 0.00 71 1017.4
20260904143904 40 39 0.0 0.0 0.00 0.00 0.00 72 1017.4
20260904143404 40 39 0.0 0.0 0.00 0.00 0.00 72 1017.4
20260904142904 39 39 0.0 0.0 0.00 0.00 0.00 72 1017.4
20260904142404 39 39 0.0 0.0 0.00 0.00 0.00 72 1017.4
20260904141904 39 39 0.0 0.0 0.00 0.00 0.00 72 1017.4
20260904134904 38 39 0.0 0.0 0.00 0.00 0.00 70 1017.2
20260904134404 38 39 0.0 0.0 0.00 0.00 0.00 70 1017.1
20260904133904 38 39 0.0 0.0 0.00 0.00 0.00 69 1017.1
20260904133404 38 39 0.0 0.0 0.00 0.00 0.00 69 1017.0
20260904132904 38 39 0.0 0.0 0.00 0.00 0.00 69 1017.0
20260904132404 38 39 0.0 0.0 0.00 0.00 0.00 69 1016.9
20260904131904 38 39 0.0 0.0 0.00 0.00 0.00 69 1016.9
20260904131404 38 39 0.0 0.0 0.00 0.00 0.00 69 1016.8
20260904130904 38 39 0.0 0.0 0.00 0.00 0.00 69 1016.7
20260904124904 39 39 0.0 0.0 0.00 0.00 0.00 68 1016.4
20260904124404 39 39 0.0 0.0 0.00 0.00 0.00 68 1016.2
20260904123904 39 39 0.0 0.0 0.00 0.00 0.00 68 1016.4
20260904123404 39 39 0.0 0.0 0.00 0.00 0.00 68 1016.2
20260904122904 39 39 0.0 0.0 0.00 0.00 0.00 67 1016.2
20260904122404 39 39 0.0 0.0 0.00 0.00 0.00 68 1016.2
20260904121904 39 39 0.0 0.0 0.00 0.00 0.00 68 1016.1
20260904121404 39 39 0.0 0.0 0.00 0.00 0.00 68 1016.0
20260904120404 39 39 0.0 0.0 0.00 0.00 0.00 67 1015.9
20260904115903 40 39 0.0 0.0 0.00 0.00 0.00 68 1015.8
20260904115404 40 39 0.0 0.0 0.00 0.00 0.00 68 1015.9
20260904114904 40 39 0.0 0.0 0.00 0.00 0.00 68 1015.9
20260904114404 40 39 0.0 0.0 0.00 0.00 0.00 67 1015.9
20260904113904 40 39 0.0 0.0 0.00 0.00 0.00 67 1015.8
20260904113404 40 39 0.0 0.0 0.00 0.00 0.00 67 1015.8
20260904112904 40 39 0.0 0.0 0.00 0.00 0.00 67 1015.9
20260904112404 40 39 0.0 0.0 0.00 0.00 0.00 67 1015.8
20260904111904 40 39 0.0 0.0 0.00 0.00 0.00 67 1015.8
20260904111404 40 39 0.0 0.0 0.00 0.00 0.00 67 1015.8
20260904110404 40 39 0.0 0.0 0.00 0.00 0.00 67 1015.8
20260904105904 40 39 0.0 0.0 0.00 0.00 0.00 67 1015.8
20260904105404 40 39 0.0 0.0 0.00 0.00 0.00 67 1015.7
20260904104904 40 39 0.0 0.0 0.00 0.00 0.00 67 1015.7
20260904103904 41 39 0.0 0.0 0.00 0.00 0.00 67 1015.6
20260904103404 41 39 0.0 0.0 0.00 0.00 0.00 67 1015.6
20260904102904 41 39 0.0 0.0 0.00 0.00 0.00 67 1015.7
20260904101903 41 39 0.0 0.0 0.00 0.00 0.00 67 1015.7
20260904101404 41 39 0.0 0.0 0.00 0.00 0.00 66 1015.6
20260904100904 41 39 0.0 0.0 0.00 0.00 0.00 66 1015.6
20260904100404 41 39 0.0 0.0 0.00 0.00 0.00 66 1015.6
20260904095904 41 39 0.0 0.0 0.00 0.00 0.00 65 1015.6
20260904095404 41 39 0.0 0.0 0.00 0.00 0.00 64 1015.5
20260904094904 41 39 0.0 0.0 0.00 0.00 0.00 64 1015.4
20260904094404 42 39 0.0 0.0 0.00 0.00 0.00 63 1015.4
20260904093904 42 39 0.0 0.0 0.00 0.00 0.00 63 1015.4
20260904093404 42 39 0.0 0.0 0.00 0.00 0.00 62 1015.4
20260904092904 42 39 0.0 0.0 0.00 0.00 0.00 62 1015.4
20260904092404 42 39 0.0 0.0 0.00 0.00 0.00 62 1015.3
20260904091904 42 39 0.0 0.0 0.00 0.00 0.00 62 1015.2
20260904091404 42 39 0.0 0.0 0.00 0.00 0.00 61 1015.1
20260904090904 43 39 0.0 0.0 0.00 0.00 0.00 61 1015.1
20260904090404 43 39 0.0 0.0 0.00 0.00 0.00 60 1015.1
20260904085904 43 39 0.0 0.0 0.00 0.00 0.00 60 1015.0
20260904085404 43 39 0.0 0.0 0.00 0.00 0.00 59 1015.0
20260904084404 44 39 0.0 0.0 0.00 0.00 0.00 59 1015.1
20260904083904 44 39 0.0 0.0 0.00 0.00 0.00 58 1015.1
20260904083404 44 39 0.0 0.0 0.00 0.00 0.00 58 1015.1
20260904082904 45 39 0.0 0.0 0.00 0.00 0.00 58 1015.1
20260904082405 45 39 0.0 0.0 0.00 0.00 0.00 57 1015.0
20260904081404 45 39 0.0 0.0 0.00 0.00 0.00 57 1015.0
20260904080904 45 39 0.0 0.0 0.00 0.00 0.00 58 1015.0
20260904080404 46 39 0.0 0.0 0.00 0.00 0.00 58 1014.9
20260904075404 46 39 0.0 0.0 0.00 0.00 0.00 60 1015.0
20260904074904 46 39 0.0 0.0 0.00 0.00 0.00 60 1015.1
20260904074404 46 39 0.0 0.0 0.00 0.00 0.00 59 1015.1
20260904073904 46 39 0.0 0.0 0.00 0.00 0.00 58 1015.1
20260904073404 46 39 0.0 0.0 0.00 0.00 0.00 58 1015.2
20260904072904 46 39 0.0 0.0 0.00 0.00 0.00 58 1015.2
20260904072404 46 39 0.0 0.0 0.00 0.00 0.00 58 1015.2
20260904071404 46 39 0.0 0.0 0.00 0.00 0.00 59 1015.2
20260904070904 46 39 0.0 0.0 0.00 0.00 0.00 59 1015.3
20260904070404 46 39 0.0 0.0 0.00 0.00 0.00 60 1015.2
20260904065404 46 39 0.0 0.0 0.00 0.00 0.00 58 1015.2
20260904064904 45 39 0.0 0.0 0.00 0.00 0.00 58 1015.1
20260904063404 46 36 0.0 0.0 0.00 0.00 0.00 58 1015.1
20260904062904 46 36 0.0 0.0 0.00 0.00 0.00 58 1015.2
20260904062404 46 36 0.0 0.0 0.00 0.00 0.00 59 1015.2
20260904061904 46 36 0.0 0.0 0.00 0.00 0.00 58 1015.2
20260904061404 46 36 0.0 0.0 0.00 0.00 0.00 57 1015.2
20260904060904 46 36 0.0 0.0 0.00 0.00 0.00 56 1015.2
20260904060404 46 36 0.0 0.0 0.00 0.00 0.00 56 1015.2
20260904055904 46 36 0.0 0.0 0.00 0.00 0.00 56 1015.2
20260904055404 46 36 0.0 0.0 0.00 0.00 0.00 56 1015.2
20260904054904 47 36 0.0 0.0 0.00 0.00 0.00 56 1015.3
20260904053404 47 36 0.0 0.0 0.00 0.00 0.00 55 1015.3
20260904052904 47 36 0.0 0.0 0.00 0.00 0.00 56 1015.3
20260904052404 48 36 0.0 0.0 0.00 0.00 0.00 55 1015.3
20260904051904 48 36 0.0 0.0 0.00 0.00 0.00 55 1015.4
20260904051404 48 36 0.0 0.0 0.00 0.00 0.00 54 1015.4
20260904050904 48 36 0.0 0.0 0.00 0.00 0.00 54 1015.4
20260904050404 49 36 0.0 0.0 0.00 0.00 0.00 52 1015.4
20260904045904 49 36 0.0 0.0 0.00 0.00 0.00 52 1015.4
20260904045404 49 36 0.0 0.0 0.00 0.00 0.00 53 1015.4
20260904044904 50 36 0.0 0.0 0.00 0.00 0.00 52 1015.4
20260904044404 50 36 0.0 0.0 0.00 0.00 0.00 52 1015.4
20260904043904 50 36 0.0 0.0 0.00 0.00 0.00 51 1015.4
20260904043404 51 36 0.0 0.0 0.00 0.00 0.00 51 1015.5
20260904042904 51 36 0.0 0.0 0.00 0.00 0.00 50 1015.5
20260904042405 52 36 0.0 0.0 0.00 0.00 0.00 50 1015.5
20260904041904 52 36 0.0 0.0 0.00 0.00 0.00 50 1015.6
20260904040904 53 36 0.0 0.0 0.00 0.00 0.00 50 1015.5
20260904040404 53 36 0.0 0.0 0.00 0.00 0.00 51 1015.5
20260904035404 54 36 0.0 0.0 0.00 0.00 0.00 47 1015.4
20260904034904 54 36 0.0 0.0 0.00 0.00 0.00 45 1015.5
20260904033904 55 36 0.0 0.0 0.00 0.00 0.00 43 1015.5
20260904033404 56 36 0.0 0.0 0.00 0.00 0.00 44 1015.4
20260904032904 56 36 0.0 0.0 0.00 0.00 0.00 43 1015.4
20260904031904 57 36 0.0 0.0 0.00 0.00 0.00 39 1015.4
20260904030905 58 36 0.0 0.0 0.00 0.00 0.00 39 1015.3
20260904030406 58 36 0.0 0.0 0.00 0.00 0.00 39 1015.3
20260904025904 58 36 0.0 0.0 0.00 0.00 0.00 39 1015.2
20260904024904 59 36 0.0 0.0 0.00 0.00 0.00 38 1015.2
20260904023904 60 36 0.0 0.0 0.00 0.00 0.00 37 1015.1
20260904023404 61 36 0.0 0.9 0.00 0.00 0.00 35 1015.0
20260904022904 61 35 1.7 4.3 0.00 0.00 0.00 32 1015.1
20260904022404 62 223 0.0 0.0 0.00 0.00 0.00 34 1015.0
20260904021904 63 223 0.0 0.0 0.00 0.00 0.00 34 1015.0
20260904021404 64 223 0.0 0.0 0.00 0.00 0.00 31 1014.9
20260904020404 65 223 0.0 0.0 0.00 0.00 0.00 28 1014.9
20260904015904 66 223 0.0 0.0 0.00 0.00 0.00 27 1014.8
20260904015405 67 223 0.0 0.0 0.00 0.00 0.00 28 1014.8
20260904014904 68 223 0.0 0.0 0.00 0.00 0.00 29 1014.8
20260904014404 69 223 0.0 0.0 0.00 0.00 0.00 28 1014.7
20260904013904 69 223 0.0 0.0 0.00 0.00 0.00 26 1014.7
20260904013404 70 223 0.0 0.0 0.00 0.00 0.00 26 1014.7
20260904012904 70 223 0.0 0.0 0.00 0.00 0.00 20 1014.6
20260904011904 72 223 0.0 0.0 0.00 0.00 0.00 17 1014.6
20260904011404 72 223 0.0 0.0 0.00 0.00 0.00 13 1014.5
20260904010904 72 223 0.0 0.9 0.00 0.00 0.00 13 1014.6
20260904005904 72 227 0.0 2.6 0.00 0.00 0.00 13 1014.6
20260904005404 72 111 0.0 5.2 0.00 0.00 0.00 14 1014.6
20260904004904 72 192 0.0 0.0 0.00 0.00 0.00 13 1014.5
20260904004404 72 193 0.0 0.0 0.00 0.00 0.00 18 1014.6
20260904003904 73 217 0.0 0.0 0.00 0.00 0.00 13 1014.5
20260904003404 73 217 0.0 0.0 0.00 0.00 0.00 19 1014.6
20260904002904 74 217 0.0 0.0 0.00 0.00 0.00 14 1014.5
20260904001904 75 217 0.0 0.9 0.00 0.00 0.00 11 1014.5
20260904001404 75 217 1.7 4.3 0.00 0.00 0.00 11 1014.5
20260904000904 75 222 1.7 6.1 0.00 0.00 0.00 11 1014.5
20260904000404 75 213 0.9 6.1 0.00 0.00 0.00 13 1014.5
20260903235904 75 218 0.0 2.6 0.00 0.00 0.00 12 1014.5
20260903235404 74 219 0.0 0.9 0.00 0.00 0.00 12 1014.6
20260903234904 74 218 0.9 1.7 0.00 0.00 0.00 13 1014.7
20260903234404 75 219 0.0 1.7 0.00 0.00 0.00 12 1014.7
20260903233404 75 219 0.9 2.6 0.00 0.00 0.00 10 1014.7
20260903232904 76 221 0.0 6.1 0.00 0.00 0.00 10 1014.7
20260903232404 76 238 1.7 7.8 0.00 0.00 0.00 10 1014.7
20260903231906 76 238 1.7 2.6 0.00 0.00 0.00 11 1014.7
20260903231404 75 209 0.0 1.7 0.00 0.00 0.00 11 1014.8
20260903230904 75 209 0.9 4.3 0.00 0.00 0.00 11 1014.8
20260903230404 75 223 2.6 6.1 0.00 0.00 0.00 13 1014.8
20260903225904 74 221 1.7 4.3 0.00 0.00 0.00 12 1014.9
20260903225404 74 216 2.6 7.0 0.00 0.00 0.00 12 1014.9
20260903224904 74 232 0.9 2.6 0.00 0.00 0.00 13 1014.9
20260903223905 74 232 0.9 2.6 0.00 0.00 0.00 13 1014.9
20260903223404 73 224 2.6 6.1 0.00 0.00 0.00 12 1015.1
20260903222904 73 250 0.0 0.9 0.00 0.00 0.00 14 1015.1
20260903222404 73 248 1.7 5.2 0.00 0.00 0.00 12 1015.1
20260903221904 73 233 1.7 6.1 0.00 0.00 0.00 12 1015.3
20260903220904 73 220 0.9 4.3 0.00 0.00 0.00 14 1015.3
20260903220404 72 217 0.0 7.0 0.00 0.00 0.00 13 1015.3
20260903215904 72 219 1.7 6.1 0.00 0.00 0.00 13 1015.4
20260903215404 72 221 2.6 7.8 0.00 0.00 0.00 13 1015.4
20260903214904 73 235 0.9 6.1 0.00 0.00 0.00 14 1015.5
20260903214404 73 219 1.7 5.2 0.00 0.00 0.00 14 1015.5
20260903213904 73 241 0.0 1.7 0.00 0.00 0.00 14 1015.6
20260903213404 73 224 0.0 1.7 0.00 0.00 0.00 13 1015.6
20260903212904 73 224 0.9 6.1 0.00 0.00 0.00 13 1015.7
20260903212404 73 226 1.7 6.1 0.00 0.00 0.00 13 1015.7
20260903211904 73 217 0.0 1.7 0.00 0.00 0.00 14 1015.7
20260903211404 73 217 1.7 2.6 0.00 0.00 0.00 15 1015.7
20260903210904 73 236 0.9 2.6 0.00 0.00 0.00 12 1015.7
20260903210404 73 229 0.9 5.2 0.00 0.00 0.00 12 1015.7
20260903205904 74 254 0.0 1.7 0.00 0.00 0.00 12 1015.7
20260903205404 74 252 0.9 6.1 0.00 0.00 0.00 12 1015.8
20260903204904 74 236 1.7 6.1 0.00 0.00 0.00 12 1015.9
20260903204404 74 224 4.3 10.4 0.00 0.00 0.00 12 1015.9
20260903203404 74 182 0.0 2.6 0.00 0.00 0.00 10 1016.0
20260903202904 74 209 0.0 0.0 0.00 0.00 0.00 10 1016.0
20260903202404 74 230 0.9 2.6 0.00 0.00 0.00 12 1016.0
20260903201904 74 223 3.5 7.0 0.00 0.00 0.00 11 1016.2
20260903201404 74 239 0.0 0.0 0.00 0.00 0.00 11 1016.2
20260903200904 74 229 0.9 2.6 0.00 0.00 0.00 10 1016.3
20260903200404 73 228 1.7 6.1 0.00 0.00 0.00 11 1016.3
20260903195904 73 199 0.0 2.6 0.00 0.00 0.00 11 1016.3
20260903195404 73 215 4.3 6.1 0.00 0.00 0.00 13 1016.5
20260903194904 73 211 0.9 6.1 0.00 0.00 0.00 14 1016.5
20260903194404 73 214 1.7 7.0 0.00 0.00 0.00 12 1016.6
20260903193904 72 238 1.7 12.2 0.00 0.00 0.00 13 1016.4
20260903193404 72 246 1.7 10.4 0.00 0.00 0.00 11 1016.6
20260903192904 72 229 2.6 10.4 0.00 0.00 0.00 13 1016.6
20260903192404 72 268 4.3 10.4 0.00 0.00 0.00 13 1016.7
20260903191904 72 260 0.0 2.6 0.00 0.00 0.00 12 1016.7
20260903191404 72 231 0.9 6.1 0.00 0.00 0.00 12 1016.7
20260903190904 72 237 1.7 7.8 0.00 0.00 0.00 13 1016.9
20260903190404 72 234 2.6 7.8 0.00 0.00 0.00 14 1016.8
20260903185904 71 230 0.9 8.7 0.00 0.00 0.00 15 1016.9
20260903185404 70 228 4.3 10.4 0.00 0.00 0.00 14 1016.9
20260903184904 70 233 1.7 7.0 0.00 0.00 0.00 16 1016.9
20260903184404 69 238 0.9 7.8 0.00 0.00 0.00 16 1017.0
20260903183904 68 235 4.3 10.4 0.00 0.00 0.00 16 1017.0
20260903183405 68 222 2.6 8.7 0.00 0.00 0.00 16 1017.1
20260903182904 68 226 1.7 5.2 0.00 0.00 0.00 17 1017.2
20260903182404 68 230 3.5 8.7 0.00 0.01 0.00 17 1017.2
20260903181904 68 225 4.3 8.7 0.00 0.01 0.00 16 1017.2
20260903181404 67 233 3.5 8.7 0.00 0.01 0.00 15 1017.3
20260903180904 67 237 1.7 7.8 0.00 0.01 0.00 17 1017.4
20260903180404 67 259 0.9 7.8 0.00 0.02 0.00 17 1017.4
20260903175904 67 227 0.9 6.1 0.00 0.02 0.00 18 1017.4
20260903175404 67 216 2.6 7.0 0.00 0.02 0.00 17 1017.5
20260903174904 67 220 0.9 7.0 0.00 0.03 0.00 19 1017.5
20260903174404 67 238 0.0 0.9 0.00 0.03 0.00 20 1017.6
20260903173904 66 253 1.7 4.3 0.00 0.03 0.00 18 1017.6
20260903173404 66 224 0.0 1.7 0.00 0.03 0.00 22 1017.6
20260903172904 66 225 0.0 4.3 0.00 0.03 0.00 20 1017.6
20260903172404 65 227 1.7 2.6 0.00 0.03 0.00 21 1017.7
20260903171904 65 231 0.0 1.7 0.00 0.03 0.00 21 1017.6
20260903171404 65 233 1.7 5.2 0.00 0.03 0.00 18 1017.7
20260903170904 65 248 0.0 1.7 0.00 0.03 0.00 23 1017.6
20260903170404 64 172 0.0 0.0 0.00 0.03 0.00 25 1017.6
20260903165904 64 173 0.0 0.0 0.00 0.03 0.00 24 1017.6
20260903164904 63 203 0.0 1.7 0.00 0.03 0.00 29 1017.6
20260903164404 62 240 0.0 0.0 0.00 0.03 0.00 29 1017.6
20260903163404 61 249 0.0 0.0 0.00 0.03 0.00 31 1017.7
20260903162904 61 249 0.0 0.0 0.00 0.03 0.00 35 1017.8
20260903162404 60 250 0.0 0.0 0.00 0.03 0.00 35 1017.8